[[{"header":{"parameterUnit":"m.s-1","parameterCategory":1,"la1":30.2991,"la2":30.254,"lo1":-89.0895,"lo2":-89.0444,"dy":0.0017,"dx":0.0017,"nx":28,"ny":28,"refTime":"2023-09-01T21:00:00:Z","depth":0,"parameterNumber":2,"parameterNumberName":"U-component_of_WINDS"},"data":[0,0,0,0,0,0,0,0,0,0,0,0,0,0,0,0,0,0,0,0,0,0,0,0,0,0,0,0,0,0,0,0,0,0,0,0,0,0,0,0,0,0,0,0,0,0,0,0,0,0,0,0,0,0,0,0,0,0,-1.7691,-1.7693,0,-1.7865,-1.7867,-1.7869,-1.7882,-1.788,-1.7878,-1.7877,-1.8058,-1.8065,-1.8071,0,0,0,0,0,0,0,0,0,0,0,0,0,-1.7371,-1.7377,-1.7691,-1.7693,-1.7695,-1.7865,-1.7868,-1.787,-1.7883,-1.788,-1.7878,-1.7876,-1.8056,-1.8064,-1.8072,0,0,0,0,0,0,0,0,0,0,0,0,0,-1.7524,-1.7379,-1.769,-1.7722,-1.7726,-1.7865,-1.7868,-1.7871,-1.7883,-1.788,-1.7877,-1.7875,-1.8053,-1.8063,-1.8073,-1.8193,0,0,-1.8103,-1.8108,0,0,0,0,0,0,0,0,-1.7515,-1.7536,-1.7715,-1.772,-1.7725,-1.7849,-1.7821,-1.7979,-1.7884,-1.7824,-1.7877,-1.7873,-1.7991,-1.8006,-1.8045,-1.8201,-1.8209,-1.8104,-1.811,-1.8115,-1.8117,0,0,0,0,0,0,0,-1.7505,-1.7528,-1.776,-1.7718,-1.7724,-1.7728,-1.7747,-1.7851,-1.7922,-1.7829,-1.783,-1.785,-1.7993,-1.8036,-1.805,-1.8212,-1.8104,-1.8113,-1.8119,-1.8123,-1.8475,-1.8478,0,0,0,0,0,0,-1.7488,-1.7519,-1.7754,-1.7765,-1.7611,-1.7736,-1.7757,-1.7812,-1.7921,-1.7934,-1.7853,-1.785,-1.802,-1.8038,-1.8056,-1.8205,-1.8115,-1.8124,-1.813,-1.8472,-1.8476,-1.848,0,0,0,0,0,0,-1.7481,-1.7509,-1.7747,-1.7643,-1.7673,-1.7745,-1.7807,-1.7817,-1.786,-1.7939,-1.7952,-1.7883,-1.8019,-1.8042,-1.8159,-1.8211,-1.8128,-1.8137,-1.8468,-1.8473,-1.8478,-1.8501,0,0,0,0,0,0,-1.7472,-1.7506,-1.7552,-1.7644,-1.7679,-1.7846,-1.781,-1.7823,-1.7876,-1.7875,-1.797,-1.7983,-1.8018,-1.8144,-1.8168,-1.8223,-1.8145,-1.8464,-1.847,-1.8476,-1.8496,-1.8506,-1.8515,0,0,0,0,0,-1.746,-1.7552,-1.7554,-1.7582,-1.7737,-1.7849,-1.787,-1.7907,-1.788,-1.7928,-1.7978,-1.798,-1.82,-1.8155,-1.8184,-1.8242,-1.846,-1.8468,-1.8476,-1.8492,-1.8504,-1.8515,0,0,0,0,0,0,-1.7466,-1.7565,-1.7568,-1.7692,-1.7762,-1.7851,-1.7912,-1.7919,-1.7999,-1.7994,-1.8038,-1.8059,-1.8174,-1.822,-1.8168,-1.8364,-1.8328,-1.8341,-1.833,-1.8343,-1.8352,-1.834,-1.8154,0,0,0,0,0,-1.7481,-1.7562,-1.7645,-1.7746,-1.7781,-1.784,-1.789,-1.7913,-1.7988,-1.8018,-1.8077,-1.815,-1.8236,-1.8292,-1.8375,-1.8502,-1.8524,-1.8556,-1.8565,-1.8573,-1.8585,-1.8656,-1.8672,-1.8505,-1.8504,-1.8504,0,0,-1.7514,-1.7578,-1.7627,-1.7749,-1.7806,-1.7891,-1.7865,-1.7956,-1.8019,-1.8032,-1.8146,-1.8191,-1.8276,-1.8398,-1.8455,-1.844,-1.8635,-1.8582,-1.8588,-1.8596,-1.8666,-1.8682,-1.8696,-1.851,-1.8509,-1.8508,0,0,-1.7618,-1.7674,-1.7765,-1.7823,-1.7908,-1.7947,-1.7969,-1.8057,-1.8088,-1.8202,-1.8213,-1.8289,-1.8436,-1.8496,-1.8546,-1.8671,-1.8677,-1.8697,-1.8748,-1.8817,-1.883,-1.8842,-1.8889,-1.8905,-1.8708,-1.8708,-1.8708,0,-1.7649,-1.7776,-1.7812,-1.7902,-1.7956,-1.7969,-1.8063,-1.8116,-1.8226,-1.8263,-1.8243,-1.8427,-1.8485,-1.8622,-1.8653,-1.8692,-1.8719,-1.8688,-1.8825,-1.8838,-1.885,-1.8894,-1.8911,-1.871,-1.871,-1.871,-1.871,0,-1.7811,-1.7899,-1.7962,-1.8066,-1.8127,-1.8218,-1.8268,-1.8325,-1.8342,-1.8383,-1.8499,-1.8569,-1.8667,-1.87,-1.8718,-1.884,-1.8828,-1.8816,-1.8781,-1.8867,-1.891,-1.8927,-1.8713,-1.8712,-1.8712,-1.8711,0,0,-1.7926,-1.8047,-1.807,-1.8117,-1.8212,-1.8282,-1.8373,-1.8468,-1.8517,-1.8591,-1.8671,-1.8794,-1.8783,-1.884,-1.8864,-1.8924,-1.9021,-1.8905,-1.8908,-1.8926,-1.9162,-1.9171,-1.919,-1.9024,-1.9027,-1.903,-1.9155,0,-1.8042,-1.8205,-1.8239,-1.8381,-1.8464,-1.8477,-1.8557,-1.8624,-1.8665,-1.8741,-1.8785,-1.8873,-1.8851,-1.8886,-1.8946,-1.8996,-1.9069,-1.8987,-1.91,-1.9103,-1.908,-1.9213,-1.9223,-1.9338,-1.9172,-1.9175,-1.9177,0,-1.82,-1.8277,-1.8427,-1.8511,-1.8547,-1.8618,-1.8708,-1.878,-1.8857,-1.8882,-1.8944,-1.8962,-1.9059,-1.9017,-1.9152,-1.9096,-1.9143,-1.9175,-1.918,-1.9194,-1.9147,-1.9232,-1.9376,-1.9394,-1.9203,-1.9201,-1.9199,0,-1.8271,-1.8412,-1.852,-1.856,-1.8661,-1.8711,-1.8755,-1.8829,-1.8884,-1.8962,-1.8998,-1.9086,-1.9136,-1.9204,-1.9245,-1.9211,-1.9378,-1.9339,-1.9402,-1.9402,-1.9439,-1.9437,-1.9595,-1.9466,-1.9466,-1.9465,-1.9465,0,-1.8398,-1.849,-1.8553,-1.862,-1.8723,-1.8761,-1.8862,-1.8907,-1.8972,-1.9048,-1.9064,-1.9136,-1.9185,-1.9263,-1.9296,-1.9403,-1.9425,-1.9449,-1.9457,-1.9449,-1.9446,-1.9482,-1.9476,-1.947,-1.9469,-1.9468,-1.9467,0,-1.8496,-1.8542,-1.8661,-1.8746,-1.8769,-1.8841,-1.8915,-1.898,-1.902,-1.9116,-1.9141,-1.9203,-1.9297,-1.9343,-1.946,-1.9481,-1.9603,-1.9605,-1.9577,-1.9581,-1.9642,-1.9637,-1.9831,-1.9859,-1.971,-1.9711,-1.9712,0,-1.8576,-1.8646,-1.8738,-1.879,-1.8835,-1.8918,-1.8974,-1.9014,-1.9071,-1.9163,-1.9218,-1.9312,-1.9389,-1.9537,-1.9594,-1.9683,-1.9688,-1.975,-1.9702,-1.9692,-1.9692,-1.9688,-1.9696,-1.976,-1.9761,-1.9762,-1.9763,0,-1.8713,-1.8731,-1.881,-1.8898,-1.8963,-1.9034,-1.9104,-1.9145,-1.9196,-1.926,-1.9355,-1.9414,-1.9532,-1.9626,-1.9718,-1.9765,-1.9774,-1.9777,-1.9797,-1.9791,-1.9772,-1.9785,-1.9603,-1.9773,-1.9772,-1.9772,-1.9771,-1.9771,-1.8805,-1.8869,-1.8944,-1.9031,-1.9087,-1.9152,-1.9218,-1.9265,-1.9344,-1.9443,-1.9462,-1.9562,-1.9637,-1.9763,-1.9812,-1.9892,-1.9879,-1.9907,-1.9915,-1.9922,-1.9925,-1.9757,-1.9909,-1.9909,-1.9909,-1.9908,-1.9908,0,-1.8945,-1.8993,-1.9073,-1.9169,-1.9238,-1.9238,-1.9315,-1.9373,-1.9461,-1.953,-1.9605,-1.9714,-1.9804,-1.9867,-1.9959,-2.0011,-2.0017,-2.0034,-2.0032,-2.0043,-1.9931,-1.9906,-2.0027,-2.0027,-2.0027,-2.0027,-2.0027,-2.0027,-1.9026,-1.9134,-1.9161,-1.9297,-1.9345,-1.9443,-1.9487,-1.9547,-1.9602,-1.9723,-1.9798,-1.9837,-1.9904,-2.0001,-2.0084,-2.01,-2.0134,-2.0151,-2.0168,-2.0063,-2.005,-2.0038,-2.0015,-2.0158,-2.0158,-2.0273,-2.0274,-2.0274]},{"header":{"parameterUnit":"m.s-1","parameterCategory":1,"la1":30.2991,"la2":30.254,"lo1":-89.0895,"lo2":-89.0444,"dy":0.0017,"dx":0.0017,"nx":28,"ny":28,"refTime":"2023-09-01T21:00:00:Z","depth":0,"parameterNumber":3,"parameterNumberName":"V-component_of_WINDS"},"data":[0,0,0,0,0,0,0,0,0,0,0,0,0,0,0,0,0,0,0,0,0,0,0,0,0,0,0,0,0,0,0,0,0,0,0,0,0,0,0,0,0,0,0,0,0,0,0,0,0,0,0,0,0,0,0,0,0,0,-0.4518,-0.4517,0,-0.4382,-0.438,-0.4379,-0.4301,-0.43,-0.43,-0.43,-0.4157,-0.4153,-0.415,0,0,0,0,0,0,0,0,0,0,0,0,0,-0.4709,-0.4706,-0.4519,-0.4517,-0.4515,-0.4382,-0.438,-0.4378,-0.4301,-0.43,-0.43,-0.43,-0.4158,-0.4154,-0.415,0,0,0,0,0,0,0,0,0,0,0,0,0,-0.4605,-0.4705,-0.4519,-0.446,-0.4454,-0.4383,-0.438,-0.4378,-0.4301,-0.43,-0.43,-0.4299,-0.4159,-0.4154,-0.4149,-0.4124,0,0,-0.4133,-0.413,0,0,0,0,0,0,0,0,-0.4611,-0.4598,-0.4471,-0.4464,-0.4457,-0.4358,-0.4395,-0.4293,-0.4301,-0.4359,-0.43,-0.4299,-0.4224,-0.4213,-0.4188,-0.4118,-0.4112,-0.4132,-0.4129,-0.4127,-0.4125,0,0,0,0,0,0,0,-0.4618,-0.4603,-0.4464,-0.4469,-0.446,-0.444,-0.4425,-0.4375,-0.4295,-0.4354,-0.4348,-0.4333,-0.422,-0.4194,-0.4185,-0.4109,-0.4132,-0.4128,-0.4124,-0.4122,-0.401,-0.401,0,0,0,0,0,0,-0.4635,-0.461,-0.4469,-0.446,-0.4534,-0.4437,-0.442,-0.439,-0.4296,-0.4281,-0.4333,-0.433,-0.4203,-0.4191,-0.4179,-0.4143,-0.4127,-0.4122,-0.4119,-0.401,-0.401,-0.401,0,0,0,0,0,0,-0.4639,-0.4623,-0.4474,-0.4533,-0.4513,-0.4434,-0.4401,-0.4388,-0.4361,-0.428,-0.4265,-0.4321,-0.4202,-0.4187,-0.4138,-0.4137,-0.4119,-0.4115,-0.401,-0.401,-0.401,-0.4072,0,0,0,0,0,0,-0.4645,-0.4625,-0.4616,-0.4534,-0.451,-0.4437,-0.4401,-0.4385,-0.4353,-0.4347,-0.4265,-0.4251,-0.4201,-0.4147,-0.4133,-0.413,-0.411,-0.4009,-0.401,-0.401,-0.407,-0.4075,-0.4079,0,0,0,0,0,-0.4652,-0.4638,-0.4616,-0.4599,-0.4497,-0.4437,-0.4424,-0.4367,-0.4353,-0.4342,-0.429,-0.4254,-0.414,-0.4143,-0.4127,-0.4121,-0.4009,-0.401,-0.401,-0.4068,-0.4074,-0.4079,0,0,0,0,0,0,-0.4722,-0.4627,-0.4601,-0.456,-0.4508,-0.4424,-0.4409,-0.4375,-0.4324,-0.4321,-0.4251,-0.4234,-0.4192,-0.4152,-0.4157,-0.4092,-0.407,-0.4068,-0.412,-0.4125,-0.4129,-0.4139,-0.4106,0,0,0,0,0,-0.4733,-0.4693,-0.4612,-0.4584,-0.4559,-0.4489,-0.4461,-0.4422,-0.4364,-0.4341,-0.4285,-0.423,-0.4181,-0.4151,-0.4102,-0.4064,-0.4044,-0.4052,-0.4057,-0.4061,-0.4059,-0.4035,-0.4037,-0.4012,-0.4012,-0.4012,0,0,-0.4754,-0.4697,-0.4676,-0.4596,-0.4551,-0.4511,-0.4471,-0.443,-0.4399,-0.4334,-0.4286,-0.4243,-0.4176,-0.4133,-0.4111,-0.4098,-0.4062,-0.4061,-0.4065,-0.4061,-0.4036,-0.4038,-0.404,-0.4012,-0.4012,-0.4012,0,0,-0.4773,-0.4726,-0.4697,-0.4653,-0.4585,-0.4538,-0.4532,-0.4453,-0.4423,-0.4373,-0.4324,-0.4285,-0.4203,-0.4158,-0.4124,-0.4124,-0.4089,-0.411,-0.4133,-0.411,-0.4112,-0.4114,-0.4113,-0.4114,-0.4109,-0.4109,-0.4109,0,-0.4808,-0.4746,-0.4687,-0.4649,-0.4614,-0.4555,-0.4525,-0.4484,-0.4403,-0.438,-0.4367,-0.4263,-0.4214,-0.4159,-0.4159,-0.4134,-0.4123,-0.4119,-0.4117,-0.4118,-0.4118,-0.4117,-0.4117,-0.4112,-0.4112,-0.4111,-0.4111,0,-0.4792,-0.475,-0.4735,-0.4659,-0.4623,-0.4589,-0.4524,-0.4494,-0.4458,-0.4412,-0.4361,-0.4301,-0.4238,-0.4222,-0.4186,-0.4161,-0.4155,-0.413,-0.4107,-0.4125,-0.4122,-0.4121,-0.4116,-0.4115,-0.4114,-0.4114,0,0,-0.4851,-0.4743,-0.4738,-0.4703,-0.4623,-0.4589,-0.4552,-0.4491,-0.4467,-0.4413,-0.4379,-0.4311,-0.4288,-0.4249,-0.4207,-0.4187,-0.4191,-0.4165,-0.4162,-0.4171,-0.4159,-0.4177,-0.4178,-0.4167,-0.4166,-0.4166,-0.4164,0,-0.4858,-0.4789,-0.4735,-0.4686,-0.4646,-0.4588,-0.4556,-0.4503,-0.4459,-0.4417,-0.4368,-0.4321,-0.4294,-0.427,-0.4248,-0.4195,-0.4187,-0.4195,-0.4133,-0.4132,-0.4152,-0.4177,-0.4196,-0.4198,-0.4163,-0.4162,-0.4162,0,-0.4857,-0.4806,-0.4754,-0.4678,-0.4659,-0.4631,-0.457,-0.4531,-0.447,-0.4439,-0.4396,-0.4353,-0.4309,-0.4291,-0.4229,-0.4235,-0.4207,-0.4177,-0.4175,-0.4167,-0.4148,-0.4169,-0.4196,-0.4197,-0.416,-0.416,-0.4161,0,-0.4904,-0.4823,-0.478,-0.4752,-0.4662,-0.4644,-0.4605,-0.4543,-0.451,-0.4457,-0.4434,-0.4377,-0.4345,-0.43,-0.4242,-0.4234,-0.4186,-0.4163,-0.4158,-0.416,-0.415,-0.4152,-0.4174,-0.4133,-0.4133,-0.4133,-0.4133,0,-0.4917,-0.4888,-0.4801,-0.4775,-0.4739,-0.4676,-0.4642,-0.4598,-0.4543,-0.4507,-0.4453,-0.442,-0.4345,-0.4302,-0.4256,-0.4212,-0.4198,-0.4171,-0.4159,-0.4175,-0.4179,-0.4155,-0.4154,-0.4133,-0.4133,-0.4133,-0.4133,0,-0.4964,-0.4905,-0.4856,-0.4775,-0.4754,-0.4731,-0.4661,-0.4633,-0.4587,-0.4541,-0.4527,-0.4453,-0.44,-0.4337,-0.4263,-0.4232,-0.4191,-0.4174,-0.4212,-0.4205,-0.4204,-0.4205,-0.4212,-0.4209,-0.4172,-0.4172,-0.4172,0,-0.4977,-0.4952,-0.4869,-0.4842,-0.4805,-0.4761,-0.4727,-0.4663,-0.463,-0.4557,-0.4538,-0.4481,-0.4432,-0.4349,-0.4288,-0.4231,-0.4211,-0.4217,-0.4202,-0.4219,-0.421,-0.4212,-0.4209,-0.4221,-0.4222,-0.4223,-0.4223,0,-0.5004,-0.4976,-0.493,-0.4873,-0.4834,-0.4786,-0.4736,-0.4716,-0.4641,-0.4606,-0.4552,-0.4514,-0.4438,-0.4382,-0.4317,-0.4276,-0.4237,-0.4228,-0.4224,-0.4241,-0.4264,-0.4251,-0.4223,-0.4229,-0.4228,-0.4228,-0.4227,-0.4227,-0.5033,-0.5009,-0.4947,-0.4897,-0.4852,-0.4806,-0.4776,-0.4725,-0.4679,-0.4614,-0.4578,-0.4524,-0.4461,-0.437,-0.433,-0.4286,-0.4273,-0.4267,-0.4265,-0.4265,-0.4269,-0.4272,-0.4274,-0.4274,-0.4274,-0.4273,-0.4273,0,-0.5058,-0.5015,-0.4969,-0.4901,-0.4861,-0.4829,-0.4771,-0.474,-0.4693,-0.4638,-0.4591,-0.4528,-0.4473,-0.4408,-0.4348,-0.4325,-0.4305,-0.4311,-0.4312,-0.4303,-0.4285,-0.4294,-0.4328,-0.4328,-0.4328,-0.4328,-0.4328,-0.4328,-0.5066,-0.5023,-0.4987,-0.492,-0.4877,-0.4825,-0.4794,-0.4751,-0.4707,-0.4639,-0.4593,-0.4551,-0.4492,-0.4427,-0.4374,-0.4356,-0.4336,-0.4347,-0.4324,-0.4309,-0.4304,-0.43,-0.4308,-0.4344,-0.4344,-0.4345,-0.4345,-0.4345]}]]